Starlink 30163

decayed
NORAD ID: 57309 Int'l Des: 2023-096 Owner: SPXS Country: US Constellation: starlink
LEOCIRCULAR
Group

About Starlink 30163

Description loading...

Altitude History

Altitude vs Time

uPlot chart will show altitude changes over time

Two-Line Element Set

1 57309U 23096V 25354.01916514 .07111831 90068-5 13961-2 0 9992
2 57309 42.9743 210.5486 0010158 229.3767 130.6239 16.30471755135712
Epoch: Dec 20, 2025 • Age: 1775 hours

Current Status

Position data unavailable
Launch Date Jul 10, 2023
Age 2.6 years
Decay Date Dec 20, 2025
Type internet

Technical Details

Classification Payload
Mass 730.00 kg
Dry Mass 700.00 kg
Total Mass 730.00 kg
Length 0.30 m
Diameter 4.10 m
Span 29.00 m
Shape Box + pan
Manufacturer SPXS
Bus Type Starlink V2M
Phase Status Unknown Transfer Status
Owner/State SPXS/US

Large Constellations

Loading constellations...